Saint Petersburg, FL

10:03 PM EDT on August 28, 2016 (GMT -0400)
Whitted

Weather History for KSPG - December, 2014

Change the Weather History Date:

Thursday, December 18, 2014

  Actual Average Record
Temperature  
Mean Temperature 60 °F -  
Max Temperature 66 °F 69 °F 122 °F (1999)
Min Temperature 55 °F 53 °F 38 °F (1953)
Degree Days  
Heating Degree Days 4    
Growing Degree Days 10 (Base 50)    
Moisture  
Dew Point 53 °F    
Average Humidity 78    
Maximum Humidity 87    
Minimum Humidity 65    
Precipitation  
Precipitation 0.00 in - - ()
Sea Level Pressure  
Sea Level Pressure 30.13 in    
Wind  
Wind Speed 3 mph (NNE)    
Max Wind Speed 7 mph    
Max Gust Speed -    
Visibility 10 miles    
Events      
Averages and records for this station are not official NWS values.
T = Trace of Precipitation, MM = Missing Value Source: NWS Daily Summary

Daily Weather History Graph

Daily Weather History Graph

Search for Another Location

Airport or City:

Trip Planner

Search our weather history database for the weather conditions in past years. The results will help you decide how hot, cold, wet, or windy it might be!

Date:

Astronomy

Dec. 18, 2014 Rise Set
Actual Time 7:15 AM EST 5:38 PM EST
Civil Twilight 6:49 AM EST 6:04 PM EST
Nautical Twilight 6:20 AM EST 6:33 PM EST
Astronomical Twilight 5:51 AM EST 7:02 PM EST
Moon 3:42 AM EST (12/18) 3:05 PM EST (12/18)
Length of Visible Light 11h 14m
Length of Day
10h 23m
Waning Crescent, 13% of the Moon is Illuminated
Dec 18
Waning Crescent
Dec 21
New
Dec 28
First Quarter
Jan 4
Full
Jan 13
Last Quarter

Hourly Weather History & Observations

Time (EST) Temp. Dew Point Humidity Pressure Visibility Wind Dir Wind Speed Gust Speed Precip Events Conditions
12:53 AM 57.9 °F 51.1 °F 78% 30.15 in 10.0 mi Calm Calm - N/A   Clear
1:53 AM 57.0 °F 53.1 °F 87% 30.14 in 10.0 mi Calm Calm - N/A   Clear
2:53 AM 57.0 °F 53.1 °F 87% 30.14 in 10.0 mi NNW 3.5 mph - N/A   Clear
3:53 AM 57.0 °F 51.1 °F 81% 30.13 in 10.0 mi North 4.6 mph - N/A   Clear
4:53 AM 57.0 °F 52.0 °F 83% 30.12 in 10.0 mi Calm Calm - N/A   Clear
5:53 AM 55.9 °F 52.0 °F 87% 30.12 in 10.0 mi Calm Calm - N/A   Clear
6:53 AM 57.0 °F 53.1 °F 87% 30.14 in 10.0 mi NNE 4.6 mph - N/A   Clear
7:53 AM 57.0 °F 53.1 °F 87% 30.16 in 10.0 mi NNE 4.6 mph - N/A   Clear
8:53 AM 59.0 °F 54.0 °F 83% 30.18 in 10.0 mi NNE 3.5 mph - N/A   Clear
9:53 AM 61.0 °F 53.1 °F 75% 30.19 in 10.0 mi ENE 4.6 mph - N/A   Clear
10:53 AM 61.0 °F 54.0 °F 78% 30.19 in 10.0 mi East 5.8 mph - N/A   Clear
11:53 AM 63.0 °F 54.0 °F 72% 30.18 in 10.0 mi East 6.9 mph - N/A   Clear
12:53 PM 64.9 °F 54.0 °F 68% 30.15 in 10.0 mi ESE 4.6 mph - N/A   Partly Cloudy
1:53 PM 64.9 °F 55.0 °F 70% 30.11 in 10.0 mi South 6.9 mph - N/A   Clear
2:53 PM 64.9 °F 55.0 °F 70% 30.10 in 10.0 mi South 6.9 mph - N/A   Clear
3:53 PM 66.0 °F 54.0 °F 65% 30.09 in 10.0 mi SSE 6.9 mph - N/A   Clear
4:53 PM 64.0 °F 55.0 °F 73% 30.09 in 10.0 mi Variable 3.5 mph - N/A   Clear
5:53 PM 63.0 °F 54.0 °F 72% 30.11 in 10.0 mi North 4.6 mph - N/A   Clear
6:53 PM 61.0 °F 53.1 °F 75% 30.11 in 10.0 mi North 5.8 mph - N/A   Clear
7:53 PM 60.1 °F 52.0 °F 75% 30.12 in 10.0 mi NNW 5.8 mph - N/A   Clear
8:53 PM 59.0 °F 52.0 °F 78% 30.10 in 10.0 mi North 5.8 mph - N/A   Clear
9:53 PM 57.9 °F 51.1 °F 78% 30.12 in 10.0 mi North 6.9 mph - N/A   Clear
10:53 PM 57.9 °F 52.0 °F 81% 30.13 in 10.0 mi North 4.6 mph - N/A   Clear
11:53 PM 57.0 °F 52.0 °F 83% 30.12 in 10.0 mi North 4.6 mph - N/A   Clear